FW8134 Weather Reports


time (UTC)temp
C
wind
direction
speed
KPH
gust
KPH
rain 1hr
cm
rain 24hr
cm
rain mn
cm
humidity
%
barometer
mb
20260510015520 14 27 3.2 9.7 0.00 0.00 0.00 75 992.4
20260510014556 14 20 4.8 9.7 0.00 0.00 0.00 75 992.4
20260510013517 14 26 4.8 8.0 0.00 0.00 0.00 75 992.5
20260510012538 15 29 4.8 11.3 0.00 0.00 0.00 75 992.5
20260510011519 15 33 4.8 11.3 0.00 0.00 0.00 75 992.7
20260510010520 15 26 4.8 9.7 0.00 0.00 0.00 75 992.8
20260510005521 15 27 4.8 6.4 0.00 0.00 0.00 76 992.9
20260510004557 15 26 4.8 12.9 0.00 0.00 0.00 75 993.1
20260510003518 15 34 4.8 9.7 0.00 0.00 0.00 75 993.3
20260510002519 15 32 6.4 12.9 0.00 0.00 0.00 76 993.4
20260510001520 15 31 3.2 9.7 0.00 0.00 0.00 77 993.4
20260510000537 14 23 3.2 6.4 0.00 0.00 0.00 79 993.6
20260509235518 14 16 3.2 4.8 0.00 0.00 0.00 80 993.8
20260509234519 13 28 3.2 12.9 0.00 0.00 0.00 83 993.8
20260509233540 12 8 1.6 4.8 0.00 0.00 0.00 89 993.8
20260509232516 12 357 0.0 3.2 0.00 0.00 0.00 92 993.9
20260509231518 12 0.0 0.0 0.00 0.00 0.00 92 994.0
20260509230519 12 343 0.0 4.8 0.00 0.00 0.00 93 994.0
20260509225520 12 0.0 0.0 0.00 0.00 0.00 93 994.1
20260509224516 12 0.0 0.0 0.00 0.00 0.00 92 994.0
20260509223518 12 0.0 0.0 0.00 0.00 0.00 92 994.1
20260509222519 12 0.0 0.0 0.00 0.00 0.00 92 994.1
20260509221520 12 0.0 0.0 0.00 0.00 0.00 91 994.1
20260509220516 12 0.0 0.0 0.00 0.00 0.00 91 994.0
20260509215517 12 0.0 0.0 0.00 0.00 0.00 91 994.0
20260509214518 12 0.0 0.0 0.00 0.00 0.00 91 994.1
20260509213519 12 0.0 0.0 0.00 0.00 0.00 90 994.1
20260509212515 12 0.0 0.0 0.00 0.00 0.00 90 994.1
20260509211537 13 0.0 0.0 0.00 0.00 0.00 89 994.2
20260509210538 13 0.0 0.0 0.00 0.00 0.00 89 994.2
20260509205539 13 0.0 0.0 0.00 0.00 0.00 88 994.1
20260509204515 13 0.0 0.0 0.00 0.00 0.00 87 993.9
20260509203517 13 0.0 0.0 0.00 0.00 0.00 86 993.9
20260509202518 14 0.0 0.0 0.00 0.00 0.00 85 993.9
20260509201519 15 0.0 0.0 0.00 0.00 0.00 85 993.9
20260509200515 15 0.0 0.0 0.00 0.00 0.00 84 993.9
20260509195536 15 0.0 0.0 0.00 0.00 0.00 83 993.8
20260509194517 16 0.0 0.0 0.00 0.00 0.00 82 993.8
20260509193519 16 0.0 0.0 0.00 0.00 0.00 79 993.7
20260509192515 17 0.0 0.0 0.00 0.00 0.00 78 993.6
20260509191516 17 0.0 0.0 0.00 0.00 0.00 75 993.6
20260509190517 18 0.0 0.0 0.00 0.00 0.00 73 993.5
20260509185518 19 0.0 0.0 0.00 0.00 0.00 71 993.4
20260509184515 20 0.0 0.0 0.00 0.00 0.00 67 993.3
20260509183536 20 0.0 0.0 0.00 0.00 0.00 65 993.3
20260509182517 21 28 3.2 8.0 0.00 0.00 0.00 61 993.2
20260509181518 21 31 4.8 8.0 0.00 0.00 0.00 59 993.1
20260509180514 21 25 4.8 9.7 0.00 0.00 0.00 58 993.0
20260509175516 21 40 6.4 12.9 0.00 0.00 0.00 57 993.1
20260509174517 22 33 4.8 11.3 0.00 0.00 0.00 56 993.1
20260509173518 22 42 4.8 9.7 0.00 0.00 0.00 56 993.1
20260509172529 22 39 9.7 19.3 0.00 0.00 0.00 55 993.2
20260509171516 22 36 6.4 12.9 0.00 0.00 0.00 53 993.3
20260509170517 22 123 1.6 8.0 0.00 0.00 0.00 53 993.3
20260509165518 22 26 6.4 11.3 0.00 0.00 0.00 53 993.4
20260509164519 22 26 4.8 14.5 0.00 0.00 0.00 53 993.5
20260509163520 22 40 8.0 17.7 0.00 0.00 0.00 53 993.5
20260509162516 23 46 6.4 16.1 0.00 0.00 0.00 53 993.5
20260509161518 22 25 4.8 8.0 0.00 0.00 0.00 55 993.5
20260509160519 22 50 6.4 12.9 0.00 0.00 0.00 55 993.6
20260509155520 22 46 4.8 11.3 0.00 0.00 0.00 54 993.7
20260509154516 23 106 1.6 8.0 0.00 0.00 0.00 51 993.7
20260509153538 23 266 1.6 8.0 0.00 0.00 0.00 52 993.8
20260509152519 23 120 3.2 14.5 0.00 0.00 0.00 50 994.0
20260509151520 23 99 4.8 9.7 0.00 0.00 0.00 51 994.0
20260509150516 24 187 4.8 12.9 0.00 0.00 0.00 51 994.2
20260509145537 23 103 4.8 11.3 0.00 0.00 0.00 52 994.3
20260509144518 23 158 6.4 16.1 0.00 0.00 0.00 54 994.4
20260509143520 23 53 8.0 17.7 0.00 0.00 0.00 53 994.2
20260509142516 22 47 6.4 16.1 0.00 0.00 0.00 55 994.3
20260509141517 23 92 6.4 16.1 0.00 0.00 0.00 53 994.3
20260509140518 23 176 4.8 9.7 0.00 0.00 0.00 50 994.2
20260509135519 23 60 4.8 19.3 0.00 0.00 0.00 50 994.2
20260509134515 23 199 3.2 8.0 0.00 0.00 0.00 51 994.2
20260509133517 23 161 6.4 16.1 0.00 0.00 0.00 51 994.3
20260509132538 23 114 6.4 14.5 0.00 0.00 0.00 53 994.5
20260509131519 22 33 6.4 16.1 0.00 0.00 0.00 54 994.5
20260509130520 22 35 8.0 16.1 0.00 0.00 0.00 55 994.5
20260509125516 22 37 4.8 16.1 0.00 0.00 0.00 54 994.5
20260509124518 22 88 4.8 12.9 0.00 0.00 0.00 54 994.6
20260509123519 23 153 4.8 14.5 0.00 0.00 0.00 54 994.7
20260509122540 22 119 3.2 8.0 0.00 0.00 0.00 56 994.8
20260509121516 22 37 8.0 20.9 0.00 0.00 0.00 57 994.9
20260509120517 22 62 3.2 11.3 0.00 0.00 0.00 57 995.1
20260509115518 21 29 8.0 14.5 0.00 0.00 0.00 59 995.1
20260509114539 21 92 3.2 8.0 0.00 0.00 0.00 60 995.2
20260509113515 21 92 4.8 12.9 0.00 0.00 0.00 61 995.4
20260509112517 21 106 4.8 12.9 0.00 0.00 0.00 60 995.5
20260509111518 21 180 4.8 12.9 0.00 0.00 0.00 61 995.6
20260509110519 21 144 3.2 9.7 0.00 0.00 0.00 62 995.7
20260509105515 21 180 4.8 16.1 0.00 0.00 0.00 61 995.7
20260509104516 21 108 4.8 11.3 0.00 0.00 0.00 63 995.8
20260509103537 20 114 1.6 8.0 0.00 0.00 0.00 66 996.0
20260509102519 20 80 4.8 11.3 0.00 0.00 0.00 66 996.0
20260509101540 20 58 3.2 8.0 0.00 0.00 0.00 67 996.0
20260509100521 18 26 6.4 16.1 0.00 0.00 0.00 67 996.1
20260509095517 18 37 8.0 14.5 0.00 0.00 0.00 69 996.0
20260509094518 18 42 4.8 16.1 0.00 0.00 0.00 69 996.1
20260509093539 18 35 6.4 12.9 0.00 0.00 0.00 69 996.1
20260509092520 18 56 6.4 14.5 0.00 0.00 0.00 70 996.2
20260509091516 17 43 3.2 9.7 0.00 0.00 0.00 71 996.2
20260509090517 17 40 6.4 12.9 0.00 0.00 0.00 71 996.2
20260509085518 17 56 4.8 12.9 0.00 0.00 0.00 73 996.1
20260509084519 16 41 6.4 9.7 0.00 0.00 0.00 74 996.1
20260509083520 16 41 4.8 12.9 0.00 0.00 0.00 75 996.3
20260509082516 16 23 4.8 9.7 0.00 0.00 0.00 76 996.4
20260509081517 15 28 6.4 11.3 0.00 0.00 0.00 76 996.4
20260509080518 15 37 6.4 9.7 0.00 0.00 0.00 77 996.4
20260509075520 15 31 4.8 9.7 0.00 0.00 0.00 79 996.4
20260509074520 15 34 8.0 14.5 0.00 0.00 0.00 78 996.4
20260509073557 15 30 6.4 14.5 0.00 0.00 0.00 79 996.5
20260509072518 14 32 4.8 11.3 0.00 0.00 0.00 81 996.5
20260509071539 13 47 4.8 11.3 0.00 0.00 0.00 83 996.5
20260509070520 13 33 8.0 12.9 0.00 0.00 0.00 84 996.5
20260509065515 13 45 4.8 11.3 0.00 0.00 0.00 86 996.5
20260509064537 12 50 3.2 8.0 0.00 0.00 0.00 88 996.5
20260509063518 12 43 1.6 4.8 0.00 0.00 0.00 93 996.5
20260509062519 11 0.0 0.0 0.00 0.00 0.00 97 996.5
20260509061515 10 0.0 0.0 0.00 0.00 0.00 97 996.5
20260509060516 10 4 0.0 1.6 0.00 0.00 0.00 97 996.6
20260509055538 9 0.0 0.0 0.00 0.00 0.00 98 996.5
20260509054519 8 0.0 0.0 0.00 0.00 0.00 97 996.3
20260509053515 8 0.0 0.0 0.00 0.00 0.00 98 996.3
20260509052517 8 0.0 0.0 0.00 0.00 0.00 98 996.3
20260509051518 7 0.0 0.0 0.00 0.00 0.00 98 996.2
20260509050519 6 0.0 0.0 0.00 0.00 0.00 97 996.2
20260509045515 6 4 0.0 1.6 0.00 0.00 0.00 97 996.2
20260509044536 6 0.0 0.0 0.00 0.00 0.00 97 996.2
20260509043518 6 0.0 0.0 0.00 0.00 0.00 97 996.2
20260509042519 6 0.0 0.0 0.00 0.00 0.00 97 996.3
20260509041535 5 0.0 0.0 0.00 0.00 0.00 97 996.2
20260509040517 5 0.0 0.0 0.00 0.00 0.00 97 996.1
20260509035518 5 0.0 0.0 0.00 0.00 0.00 97 996.3
20260509034539 5 0.0 0.0 0.00 0.00 0.00 97 996.3
20260509033520 5 0.0 0.0 0.00 0.00 0.00 97 996.3
20260509032516 5 0.0 0.0 0.00 0.00 0.00 97 996.3
20260509031518 5 0.0 0.0 0.00 0.00 0.00 97 996.4
20260509030519 5 0.0 0.0 0.00 0.00 0.00 96 996.5
20260509025520 5 0.0 0.0 0.00 0.00 0.00 96 996.6
20260509024516 6 0.0 0.0 0.00 0.00 0.00 96 996.7
20260509023537 6 0.0 0.0 0.00 0.00 0.00 96 996.7
20260509022518 6 0.0 0.0 0.00 0.00 0.00 96 996.7
20260509021520 6 0.0 0.0 0.00 0.00 0.00 96 996.7
20260509020516 6 0.0 0.0 0.00 0.00 0.00 96 996.7